Time,TemperatureF,DewpointF,PressureIn,WindDirection,WindDirectionDegrees,WindSpeedMPH,WindSpeedGustMPH,Humidity,HourlyPrecipIn,Conditions,Clouds,dailyrainin,SoftwareType,DateUTC
2013-01-19 00:01:00,31.6,19.4,30.38,South,180,4.5,4.5,60,0.00,,,0.41,WeatherCatV1.11B39,2013-01-19 05:01:00,
2013-01-19 00:03:00,31.6,19.4,30.38,SE,135,1.6,4.5,60,0.00,,,0.41,WeatherCatV1.11B39,2013-01-19 05:03:00,
2013-01-19 00:04:00,31.6,19.4,30.38,South,180,3.1,3.1,60,0.00,,,0.41,WeatherCatV1.11B39,2013-01-19 05:04:00,
2013-01-19 00:05:00,31.6,19.4,30.38,South,180,3.1,3.1,60,0.00,,,0.41,WeatherCatV1.11B39,2013-01-19 05:05:00,
2013-01-19 00:10:00,31.8,19.5,30.38,South,180,3.1,3.1,60,0.00,,,0.41,WeatherCatV1.11B39,2013-01-19 05:10:00,
2013-01-19 00:15:00,31.8,19.9,30.37,South,180,2.2,3.1,61,0.00,,,0.41,WeatherCatV1.11B39,2013-01-19 05:15:00,
2013-01-19 00:21:00,31.8,19.9,30.37,SE,135,3.8,4.5,61,0.00,,,0.41,WeatherCatV1.11B39,2013-01-19 05:21:00,
2013-01-19 00:26:00,32.0,20.1,30.37,South,180,3.1,3.1,61,0.00,,,0.41,WeatherCatV1.11B39,2013-01-19 05:26:00,
2013-01-19 00:31:00,32.0,20.1,30.36,SE,135,1.6,3.1,61,0.00,,,0.41,WeatherCatV1.11B39,2013-01-19 05:31:00,
2013-01-19 00:36:00,32.0,20.1,30.36,South,180,2.2,3.8,61,0.00,,,0.41,WeatherCatV1.11B39,2013-01-19 05:36:00,
2013-01-19 00:42:00,31.8,20.7,30.36,South,180,3.1,3.1,63,0.00,,,0.41,WeatherCatV1.11B39,2013-01-19 05:42:00,
2013-01-19 00:47:00,32.0,20.5,30.36,SW,225,2.2,5.4,62,0.00,,,0.41,WeatherCatV1.11B39,2013-01-19 05:47:00,
2013-01-19 00:52:00,32.0,20.5,30.36,SE,135,2.2,2.2,62,0.00,,,0.41,WeatherCatV1.11B39,2013-01-19 05:52:00,
2013-01-19 00:57:00,32.0,20.5,30.36,SE,135,1.6,3.1,62,0.00,,,0.41,WeatherCatV1.11B39,2013-01-19 05:57:00,
2013-01-19 01:03:00,32.0,20.9,30.35,SE,135,3.1,4.5,63,0.00,,,0.41,WeatherCatV1.11B39,2013-01-19 06:03:00,
2013-01-19 01:08:00,32.0,20.9,30.35,SSE,157,1.6,1.6,63,0.00,,,0.41,WeatherCatV1.11B39,2013-01-19 06:08:00,
2013-01-19 01:13:00,31.8,21.1,30.35,South,180,2.2,4.5,64,0.00,,,0.41,WeatherCatV1.11B39,2013-01-19 06:13:00,
2013-01-19 01:18:00,32.0,20.9,30.35,South,180,3.1,8.3,63,0.00,,,0.41,WeatherCatV1.11B39,2013-01-19 06:18:00,
2013-01-19 01:24:00,32.0,20.9,30.35,South,180,3.1,3.1,63,0.00,,,0.41,WeatherCatV1.11B39,2013-01-19 06:24:00,
2013-01-19 01:29:00,32.0,20.9,30.35,South,180,3.1,3.1,63,0.00,,,0.41,WeatherCatV1.11B39,2013-01-19 06:29:00,
2013-01-19 01:34:00,32.0,20.9,30.35,SE,135,3.8,3.8,63,0.00,,,0.41,WeatherCatV1.11B39,2013-01-19 06:34:00,
2013-01-19 01:39:00,32.0,21.2,30.36,South,180,2.2,2.2,64,0.00,,,0.41,WeatherCatV1.11B39,2013-01-19 06:39:00,
2013-01-19 01:45:00,32.0,21.2,30.35,South,180,2.2,2.2,64,0.00,,,0.41,WeatherCatV1.11B39,2013-01-19 06:45:00,
2013-01-19 01:50:00,31.8,21.4,30.36,South,180,3.8,3.8,65,0.00,,,0.41,WeatherCatV1.11B39,2013-01-19 06:50:00,
2013-01-19 01:55:00,31.8,21.4,30.36,South,180,1.6,1.6,65,0.00,,,0.41,WeatherCatV1.11B39,2013-01-19 06:55:00,
2013-01-19 02:00:00,31.8,21.4,30.36,SSE,157,2.2,3.8,65,0.00,,,0.41,WeatherCatV1.11B39,2013-01-19 07:00:00,
2013-01-19 02:06:00,31.8,21.8,30.36,SSE,157,3.1,3.1,66,0.00,,,0.41,WeatherCatV1.11B39,2013-01-19 07:06:00,
2013-01-19 02:11:00,31.8,21.8,30.36,South,180,3.1,3.1,66,0.00,,,0.41,WeatherCatV1.11B39,2013-01-19 07:11:00,
2013-01-19 02:16:00,31.8,21.8,30.35,SE,135,2.2,3.1,66,0.00,,,0.41,WeatherCatV1.11B39,2013-01-19 07:16:00,
2013-01-19 02:21:00,31.8,21.8,30.35,SE,135,2.2,3.1,66,0.00,,,0.41,WeatherCatV1.11B39,2013-01-19 07:21:00,
2013-01-19 02:27:00,31.6,21.6,30.35,South,180,2.2,2.2,66,0.00,,,0.41,WeatherCatV1.11B39,2013-01-19 07:27:00,
2013-01-19 02:32:00,31.6,22.0,30.36,SSW,202,2.2,3.1,67,0.00,,,0.41,WeatherCatV1.11B39,2013-01-19 07:32:00,
2013-01-19 02:37:00,31.6,22.0,30.36,South,180,3.1,3.1,67,0.00,,,0.41,WeatherCatV1.11B39,2013-01-19 07:37:00,
2013-01-19 02:43:00,31.8,22.1,30.36,SE,135,2.2,3.1,67,0.00,,,0.41,WeatherCatV1.11B39,2013-01-19 07:43:00,
2013-01-19 02:48:00,31.8,22.1,30.35,SW,225,1.6,1.6,67,0.00,,,0.41,WeatherCatV1.11B39,2013-01-19 07:48:00,
2013-01-19 02:53:00,31.6,22.0,30.35,South,180,1.6,3.8,67,0.00,,,0.41,WeatherCatV1.11B39,2013-01-19 07:53:00,
2013-01-19 02:58:00,31.8,22.1,30.35,SSE,157,2.2,2.2,67,0.00,,,0.41,WeatherCatV1.11B39,2013-01-19 07:58:00,
2013-01-19 03:04:00,31.8,22.1,30.35,South,180,3.8,3.8,67,0.00,,,0.41,WeatherCatV1.11B39,2013-01-19 08:04:00,
2013-01-19 03:09:00,32.0,22.3,30.35,South,180,3.1,3.1,67,0.00,,,0.41,WeatherCatV1.11B39,2013-01-19 08:09:00,
2013-01-19 03:14:00,32.0,22.3,30.35,South,180,3.1,3.8,67,0.00,,,0.41,WeatherCatV1.11B39,2013-01-19 08:14:00,
2013-01-19 03:20:00,32.0,22.3,30.34,SE,135,2.2,3.8,67,0.00,,,0.41,WeatherCatV1.11B39,2013-01-19 08:20:00,
2013-01-19 03:25:00,32.0,22.3,30.34,South,180,3.8,3.8,67,0.00,,,0.41,WeatherCatV1.11B39,2013-01-19 08:25:00,
2013-01-19 03:30:00,32.2,22.1,30.34,SSE,157,4.5,4.5,66,0.00,,,0.41,WeatherCatV1.11B39,2013-01-19 08:30:00,
2013-01-19 03:35:00,32.2,22.1,30.34,South,180,2.2,2.2,66,0.00,,,0.41,WeatherCatV1.11B39,2013-01-19 08:35:00,
2013-01-19 03:41:00,32.0,21.9,30.34,South,180,3.8,3.8,66,0.00,,,0.41,WeatherCatV1.11B39,2013-01-19 08:41:00,
2013-01-19 03:46:00,32.2,22.1,30.33,SE,135,5.4,5.4,66,0.00,,,0.41,WeatherCatV1.11B39,2013-01-19 08:46:00,
2013-01-19 03:51:00,32.4,22.3,30.34,South,180,1.6,3.1,66,0.00,,,0.41,WeatherCatV1.11B39,2013-01-19 08:51:00,
2013-01-19 03:56:00,32.2,22.1,30.33,South,180,2.2,2.2,66,0.00,,,0.41,WeatherCatV1.11B39,2013-01-19 08:56:00,
2013-01-19 04:02:00,32.2,22.1,30.33,SE,135,3.1,3.1,66,0.00,,,0.41,WeatherCatV1.11B39,2013-01-19 09:02:00,
2013-01-19 04:07:00,32.4,21.9,30.33,South,180,6.0,6.0,65,0.00,,,0.41,WeatherCatV1.11B39,2013-01-19 09:07:00,
2013-01-19 04:12:00,32.4,21.9,30.33,South,180,4.5,4.5,65,0.00,,,0.41,WeatherCatV1.11B39,2013-01-19 09:12:00,
2013-01-19 04:17:00,32.5,22.1,30.33,SSW,202,3.1,4.5,65,0.00,,,0.41,WeatherCatV1.11B39,2013-01-19 09:17:00,
2013-01-19 04:23:00,32.4,21.9,30.33,South,180,4.5,4.5,65,0.00,,,0.41,WeatherCatV1.11B39,2013-01-19 09:23:00,
2013-01-19 04:28:00,32.4,21.9,30.32,South,180,2.2,3.8,65,0.00,,,0.41,WeatherCatV1.11B39,2013-01-19 09:28:00,
2013-01-19 04:33:00,32.4,21.9,30.32,South,180,2.2,3.1,65,0.00,,,0.41,WeatherCatV1.11B39,2013-01-19 09:33:00,
2013-01-19 04:38:00,32.4,21.9,30.32,South,180,5.4,5.4,65,0.00,,,0.41,WeatherCatV1.11B39,2013-01-19 09:38:00,
2013-01-19 04:44:00,32.4,21.9,30.32,South,180,2.2,2.2,65,0.00,,,0.41,WeatherCatV1.11B39,2013-01-19 09:44:00,
2013-01-19 04:49:00,32.4,21.9,30.32,South,180,4.5,4.5,65,0.00,,,0.41,WeatherCatV1.11B39,2013-01-19 09:49:00,
2013-01-19 04:54:00,32.5,22.1,30.32,South,180,3.8,3.8,65,0.00,,,0.41,WeatherCatV1.11B39,2013-01-19 09:54:00,
2013-01-19 04:59:00,32.5,22.1,30.32,South,180,2.2,3.8,65,0.00,,,0.41,WeatherCatV1.11B39,2013-01-19 09:59:00,
2013-01-19 05:05:00,32.5,22.1,30.32,South,180,2.2,2.2,65,0.00,,,0.41,WeatherCatV1.11B39,2013-01-19 10:05:00,
2013-01-19 05:10:00,32.5,21.7,30.31,South,180,4.5,4.5,64,0.00,,,0.41,WeatherCatV1.11B39,2013-01-19 10:10:00,
2013-01-19 05:15:00,32.7,22.3,30.31,South,180,4.5,4.5,65,0.00,,,0.41,WeatherCatV1.11B39,2013-01-19 10:15:00,
2013-01-19 05:20:00,32.9,22.4,30.31,South,180,3.8,3.8,65,0.00,,,0.41,WeatherCatV1.11B39,2013-01-19 10:20:00,
2013-01-19 05:26:00,32.9,22.4,30.31,South,180,3.1,3.1,65,0.00,,,0.41,WeatherCatV1.11B39,2013-01-19 10:26:00,
2013-01-19 05:31:00,32.9,22.4,30.31,SSE,157,3.8,3.8,65,0.00,,,0.41,WeatherCatV1.11B39,2013-01-19 10:31:00,
2013-01-19 05:36:00,33.1,22.2,30.31,SE,135,2.2,3.1,64,0.00,,,0.41,WeatherCatV1.11B39,2013-01-19 10:36:00,
2013-01-19 05:41:00,33.1,22.2,30.31,SE,135,3.1,3.8,64,0.00,,,0.41,WeatherCatV1.11B39,2013-01-19 10:41:00,
2013-01-19 05:47:00,32.9,22.1,30.31,South,180,4.5,4.5,64,0.00,,,0.41,WeatherCatV1.11B39,2013-01-19 10:47:00,
2013-01-19 05:52:00,32.9,22.1,30.31,South,180,6.0,6.0,64,0.00,,,0.41,WeatherCatV1.11B39,2013-01-19 10:52:00,
2013-01-19 05:57:00,33.1,22.2,30.31,South,180,3.1,3.8,64,0.00,,,0.41,WeatherCatV1.11B39,2013-01-19 10:57:00,
2013-01-19 06:03:00,32.9,22.1,30.31,South,180,3.8,4.5,64,0.00,,,0.41,WeatherCatV1.11B39,2013-01-19 11:03:00,
2013-01-19 06:08:00,32.9,22.1,30.31,South,180,2.2,5.4,64,0.00,,,0.41,WeatherCatV1.11B39,2013-01-19 11:08:00,
2013-01-19 06:10:00,45.1,40.6,30.20,SW,226,0.0,0.0,84,0.00,,,0.00,WeatherCatV1.11B39,2013-01-19 11:10:00,
2013-01-19 06:13:00,32.9,22.1,30.31,South,180,2.2,2.2,64,0.00,,,0.41,WeatherCatV1.11B39,2013-01-19 11:13:00,
2013-01-19 06:15:00,45.1,40.6,30.21,SW,220,0.0,0.7,84,0.00,,,0.00,WeatherCatV1.11B39,2013-01-19 11:15:00,
2013-01-19 06:20:00,45.1,40.6,30.21,SSW,203,0.0,0.0,84,0.00,,,0.00,WeatherCatV1.11B39,2013-01-19 11:20:00,
2013-01-19 06:25:00,45.0,40.4,30.21,South,191,0.0,0.7,84,0.00,,,0.00,WeatherCatV1.11B39,2013-01-19 11:25:00,
2013-01-19 06:30:00,44.8,40.2,30.21,South,186,0.0,0.0,84,0.00,,,0.00,WeatherCatV1.11B39,2013-01-19 11:30:00,
2013-01-19 06:35:00,44.4,40.2,30.20,South,183,0.0,0.7,85,0.00,,,0.00,WeatherCatV1.11B39,2013-01-19 11:35:00,
2013-01-19 06:40:00,44.1,39.8,30.20,South,181,0.0,0.0,85,0.00,,,0.00,WeatherCatV1.11B39,2013-01-19 11:40:00,
2013-01-19 06:45:00,43.9,39.7,30.20,WSW,243,0.0,0.7,85,0.00,,,0.00,WeatherCatV1.11B39,2013-01-19 11:45:00,
2013-01-19 06:50:00,43.7,39.5,30.21,WNW,288,0.0,0.0,85,0.00,,,0.00,WeatherCatV1.11B39,2013-01-19 11:50:00,
2013-01-19 06:55:00,43.5,39.3,30.22,NW,319,0.0,0.0,85,0.00,,,0.00,WeatherCatV1.11B39,2013-01-19 11:55:00,
2013-01-19 07:00:00,43.3,39.1,30.22,NNW,338,0.0,0.0,85,0.00,,,0.00,WeatherCatV1.11B39,2013-01-19 12:00:00,
2013-01-19 07:05:00,43.2,39.3,30.22,North,349,0.0,0.0,86,0.00,,,0.00,WeatherCatV1.11B39,2013-01-19 12:05:00,
2013-01-19 07:10:00,43.0,39.1,30.23,North,353,0.0,0.7,86,0.00,,,0.00,WeatherCatV1.11B39,2013-01-19 12:10:00,
2013-01-19 07:15:00,43.0,39.1,30.23,North,356,0.0,0.7,86,0.00,,,0.00,WeatherCatV1.11B39,2013-01-19 12:15:00,
2013-01-19 07:20:00,42.8,39.2,30.23,North,0,0.0,1.6,87,0.00,,,0.00,WeatherCatV1.11B39,2013-01-19 12:20:00,
2013-01-19 07:25:00,42.8,39.2,30.24,NNW,348,0.7,1.6,87,0.00,,,0.00,WeatherCatV1.11B39,2013-01-19 12:25:00,
2013-01-19 07:30:00,42.6,39.3,30.25,North,357,0.7,1.6,88,0.00,,,0.00,WeatherCatV1.11B39,2013-01-19 12:30:00,
2013-01-19 07:35:00,42.4,39.4,30.25,North,0,1.6,3.1,89,0.00,,,0.00,WeatherCatV1.11B39,2013-01-19 12:35:00,
2013-01-19 07:40:00,42.4,39.4,30.25,North,0,1.6,3.1,89,0.00,,,0.00,WeatherCatV1.11B39,2013-01-19 12:40:00,
2013-01-19 07:50:00,42.6,39.9,30.26,North,0,1.6,3.1,90,0.00,,,0.00,WeatherCatV1.11B39,2013-01-19 12:50:00,
2013-01-19 07:51:00,32.7,22.3,30.30,South,180,3.1,4.5,65,0.00,,,0.41,WeatherCatV1.11B39,2013-01-19 12:51:00,
2013-01-19 07:56:00,32.9,22.4,30.30,South,180,3.1,4.5,65,0.00,,,0.41,WeatherCatV1.11B39,2013-01-19 12:56:00,
2013-01-19 08:02:00,32.9,22.4,30.30,South,180,1.6,2.2,65,0.00,,,0.41,WeatherCatV1.11B39,2013-01-19 13:02:00,
2013-01-19 08:07:00,32.9,22.4,30.30,South,180,3.8,3.8,65,0.00,,,0.41,WeatherCatV1.11B39,2013-01-19 13:07:00,
2013-01-19 08:12:00,33.1,22.6,30.30,South,180,2.2,2.2,65,0.00,,,0.41,WeatherCatV1.11B39,2013-01-19 13:12:00,
2013-01-19 08:17:00,33.3,22.8,30.30,South,180,2.2,2.2,65,0.00,,,0.41,WeatherCatV1.11B39,2013-01-19 13:17:00,
2013-01-19 08:23:00,33.4,23.0,30.30,SSE,157,4.5,4.5,65,0.00,,,0.41,WeatherCatV1.11B39,2013-01-19 13:23:00,
2013-01-19 08:28:00,33.6,23.1,30.30,North,0,3.8,4.5,65,0.00,,,0.41,WeatherCatV1.11B39,2013-01-19 13:28:00,
2013-01-19 08:33:00,33.8,22.6,30.30,South,180,3.1,3.8,63,0.00,,,0.41,WeatherCatV1.11B39,2013-01-19 13:33:00,
2013-01-19 08:38:00,33.8,22.6,30.30,SE,135,2.2,4.5,63,0.00,,,0.41,WeatherCatV1.11B39,2013-01-19 13:38:00,
2013-01-19 08:44:00,34.2,22.9,30.30,South,180,4.5,5.4,63,0.00,,,0.41,WeatherCatV1.11B39,2013-01-19 13:44:00,
2013-01-19 08:49:00,34.3,23.1,30.30,West,270,3.8,4.5,63,0.00,,,0.41,WeatherCatV1.11B39,2013-01-19 13:49:00,
2013-01-19 08:54:00,34.7,23.0,30.31,South,180,3.1,3.1,62,0.00,,,0.41,WeatherCatV1.11B39,2013-01-19 13:54:00,
2013-01-19 09:00:00,35.4,23.7,30.31,South,180,3.8,3.8,62,0.00,,,0.41,WeatherCatV1.11B39,2013-01-19 14:00:00,
2013-01-19 09:05:00,36.7,23.7,30.30,WNW,292,3.8,4.5,59,0.00,,,0.41,WeatherCatV1.11B39,2013-01-19 14:05:00,
2013-01-19 09:10:00,37.4,25.6,30.30,South,180,3.1,3.1,62,0.00,,,0.41,WeatherCatV1.11B39,2013-01-19 14:10:00,
2013-01-19 09:15:00,38.3,25.2,30.30,SE,135,7.6,7.6,59,0.00,,,0.41,WeatherCatV1.11B39,2013-01-19 14:15:00,
2013-01-19 09:21:00,38.3,25.2,30.30,SE,135,7.6,7.6,59,0.00,,,0.41,WeatherCatV1.11B39,2013-01-19 14:21:00,
2013-01-19 09:26:00,37.2,22.6,30.30,NW,315,3.8,3.8,55,0.00,,,0.41,WeatherCatV1.11B39,2013-01-19 14:26:00,
2013-01-19 09:31:00,37.2,23.0,30.30,South,180,6.9,6.9,56,0.00,,,0.41,WeatherCatV1.11B39,2013-01-19 14:31:00,
2013-01-19 09:36:00,37.2,22.6,30.30,South,180,3.8,3.8,55,0.00,,,0.41,WeatherCatV1.11B39,2013-01-19 14:36:00,
2013-01-19 09:42:00,37.2,22.6,30.30,South,180,1.6,1.6,55,0.00,,,0.41,WeatherCatV1.11B39,2013-01-19 14:42:00,
2013-01-19 09:47:00,37.4,24.8,30.30,South,180,3.8,3.8,60,0.00,,,0.41,WeatherCatV1.11B39,2013-01-19 14:47:00,
2013-01-19 09:53:00,-999.0,-99.9,30.30,North,-999,-999.0,3.8,-999,0.00,,,0.41,WeatherCatV1.11B39,2013-01-19 14:53:00,
2013-01-19 10:00:00,-999.0,-99.9,30.30,North,-999,-999.0,3.8,-999,0.00,,,0.41,WeatherCatV1.11B39,2013-01-19 15:00:00,
2013-01-19 10:05:00,42.3,26.4,30.30,South,180,6.0,6.0,53,0.00,,,0.41,WeatherCatV1.11B39,2013-01-19 15:05:00,
2013-01-19 10:10:00,42.4,26.5,30.30,South,180,3.1,3.1,53,0.00,,,0.41,WeatherCatV1.11B39,2013-01-19 15:10:00,
2013-01-19 10:16:00,42.3,26.4,30.29,South,180,4.5,4.5,53,0.00,,,0.41,WeatherCatV1.11B39,2013-01-19 15:16:00,
2013-01-19 10:21:00,42.3,26.4,30.29,South,180,2.2,2.2,53,0.00,,,0.41,WeatherCatV1.11B39,2013-01-19 15:21:00,
2013-01-19 10:26:00,42.8,25.9,30.29,SE,135,3.1,3.1,51,0.00,,,0.41,WeatherCatV1.11B39,2013-01-19 15:26:00,
2013-01-19 10:31:00,43.0,25.6,30.28,South,180,3.8,3.8,50,0.00,,,0.41,WeatherCatV1.11B39,2013-01-19 15:31:00,
2013-01-19 10:37:00,43.2,26.7,30.29,SSW,202,2.2,2.2,52,0.00,,,0.41,WeatherCatV1.11B39,2013-01-19 15:37:00,
2013-01-19 10:42:00,44.4,26.5,30.28,SSE,157,3.1,3.1,49,0.00,,,0.41,WeatherCatV1.11B39,2013-01-19 15:42:00,
2013-01-19 10:47:00,45.5,27.0,30.28,South,180,0.7,0.7,48,0.00,,,0.41,WeatherCatV1.11B39,2013-01-19 15:47:00,
2013-01-19 10:52:00,45.5,27.0,30.27,South,180,0.7,0.7,48,0.00,,,0.41,WeatherCatV1.11B39,2013-01-19 15:52:00,
2013-01-19 10:58:00,46.6,26.9,30.27,NNE,22,3.1,3.1,46,0.00,,,0.41,WeatherCatV1.11B39,2013-01-19 15:58:00,
2013-01-19 11:03:00,46.0,26.4,30.26,South,180,2.2,2.2,46,0.00,,,0.41,WeatherCatV1.11B39,2013-01-19 16:03:00,
2013-01-19 11:08:00,45.7,26.6,30.26,SE,135,3.8,3.8,47,0.00,,,0.41,WeatherCatV1.11B39,2013-01-19 16:08:00,
2013-01-19 11:13:00,45.3,26.3,30.26,SW,225,3.1,3.8,47,0.00,,,0.41,WeatherCatV1.11B39,2013-01-19 16:13:00,
2013-01-19 11:19:00,45.3,27.3,30.25,SW,225,3.8,3.8,49,0.00,,,0.41,WeatherCatV1.11B39,2013-01-19 16:19:00,
2013-01-19 11:24:00,45.3,27.3,30.25,SW,225,3.8,3.8,49,0.00,,,0.41,WeatherCatV1.11B39,2013-01-19 16:24:00,
2013-01-19 11:29:00,46.4,27.3,30.24,South,180,3.1,3.1,47,0.00,,,0.41,WeatherCatV1.11B39,2013-01-19 16:29:00,
2013-01-19 11:34:00,46.4,27.3,30.24,SW,225,3.1,3.1,47,0.00,,,0.41,WeatherCatV1.11B39,2013-01-19 16:34:00,
2013-01-19 11:40:00,47.5,27.7,30.23,East,90,3.1,3.1,46,0.00,,,0.41,WeatherCatV1.11B39,2013-01-19 16:40:00,
2013-01-19 11:45:00,47.8,28.1,30.22,SW,225,3.1,3.1,46,0.00,,,0.41,WeatherCatV1.11B39,2013-01-19 16:45:00,
2013-01-19 11:50:00,49.3,28.8,30.22,SW,225,1.6,1.6,45,0.00,,,0.41,WeatherCatV1.11B39,2013-01-19 16:50:00,
2013-01-19 11:55:00,49.8,29.3,30.21,SW,225,1.6,1.6,45,0.00,,,0.41,WeatherCatV1.11B39,2013-01-19 16:55:00,
2013-01-19 12:01:00,-999.0,-99.9,30.21,North,-999,-999.0,1.6,-999,0.00,,,0.41,WeatherCatV1.11B39,2013-01-19 17:01:00,
2013-01-19 12:07:00,51.4,27.9,30.20,South,180,0.7,0.7,40,0.00,,,0.41,WeatherCatV1.11B39,2013-01-19 17:07:00,
2013-01-19 12:12:00,52.0,27.8,30.20,SW,225,2.2,2.2,39,0.00,,,0.41,WeatherCatV1.11B39,2013-01-19 17:12:00,
2013-01-19 12:17:00,51.8,27.0,30.19,ESE,112,2.2,2.2,38,0.00,,,0.41,WeatherCatV1.11B39,2013-01-19 17:17:00,
2013-01-19 12:22:00,51.8,27.0,30.19,SE,135,2.2,2.2,38,0.00,,,0.41,WeatherCatV1.11B39,2013-01-19 17:22:00,
2013-01-19 12:28:00,51.8,27.0,30.18,SE,135,2.2,2.2,38,0.00,,,0.41,WeatherCatV1.11B39,2013-01-19 17:28:00,
2013-01-19 12:35:00,-999.0,-99.9,30.18,North,-999,-999.0,2.2,-999,0.00,,,0.41,WeatherCatV1.11B39,2013-01-19 17:35:00,
2013-01-19 12:42:00,-999.0,-99.9,30.17,North,-999,-999.0,2.2,-999,0.00,,,0.41,WeatherCatV1.11B39,2013-01-19 17:42:00,
2013-01-19 12:49:00,-999.0,-99.9,30.17,North,-999,-999.0,2.2,-999,0.00,,,0.41,WeatherCatV1.11B39,2013-01-19 17:49:00,
2013-01-19 12:54:00,55.9,28.7,30.17,SW,225,3.1,3.1,35,0.00,,,0.41,WeatherCatV1.11B39,2013-01-19 17:54:00,
2013-01-19 12:59:00,55.9,28.7,30.17,SW,225,3.1,3.1,35,0.00,,,0.41,WeatherCatV1.11B39,2013-01-19 17:59:00,
2013-01-19 13:04:00,55.6,27.7,30.16,West,270,3.1,3.1,34,0.00,,,0.41,WeatherCatV1.11B39,2013-01-19 18:04:00,
2013-01-19 13:10:00,55.2,25.1,30.16,NE,45,3.8,3.8,31,0.00,,,0.41,WeatherCatV1.11B39,2013-01-19 18:10:00,
2013-01-19 13:15:00,55.2,25.1,30.16,NE,45,3.8,3.8,31,0.00,,,0.41,WeatherCatV1.11B39,2013-01-19 18:15:00,
2013-01-19 13:21:00,57.2,29.1,30.15,SE,135,2.2,2.2,34,0.00,,,0.41,WeatherCatV1.11B39,2013-01-19 18:21:00,
2013-01-19 13:26:00,57.2,29.1,30.15,SE,135,2.2,2.2,34,0.00,,,0.41,WeatherCatV1.11B39,2013-01-19 18:26:00,
2013-01-19 13:32:00,57.4,27.0,30.15,SW,225,3.1,3.1,31,0.00,,,0.41,WeatherCatV1.11B39,2013-01-19 18:32:00,
2013-01-19 13:37:00,58.3,28.6,30.15,South,180,3.1,3.1,32,0.00,,,0.41,WeatherCatV1.11B39,2013-01-19 18:37:00,
2013-01-19 13:42:00,58.3,28.6,30.15,SE,135,2.2,2.2,32,0.00,,,0.41,WeatherCatV1.11B39,2013-01-19 18:42:00,
2013-01-19 13:48:00,-999.0,-99.9,30.14,North,-999,-999.0,2.2,-999,0.00,,,0.41,WeatherCatV1.11B39,2013-01-19 18:48:00,
2013-01-19 13:55:00,-999.0,-99.9,30.14,North,-999,-999.0,2.2,-999,0.00,,,0.41,WeatherCatV1.11B39,2013-01-19 18:55:00,
2013-01-19 14:00:00,58.8,28.3,30.14,NW,315,1.6,1.6,31,0.00,,,0.41,WeatherCatV1.11B39,2013-01-19 19:00:00,
2013-01-19 14:05:00,58.6,27.3,30.13,SW,225,2.2,2.2,30,0.00,,,0.41,WeatherCatV1.11B39,2013-01-19 19:05:00,
2013-01-19 14:11:00,58.6,27.3,30.12,SW,225,2.2,2.2,30,0.00,,,0.41,WeatherCatV1.11B39,2013-01-19 19:11:00,
2013-01-19 14:16:00,-999.0,-99.9,30.12,North,-999,-999.0,2.2,-999,0.00,,,0.41,WeatherCatV1.11B39,2013-01-19 19:16:00,
2013-01-19 14:23:00,-999.0,-99.9,30.11,North,-999,-999.0,2.2,-999,0.00,,,0.41,WeatherCatV1.11B39,2013-01-19 19:23:00,
2013-01-19 14:30:00,-999.0,-99.9,30.11,North,-999,-999.0,2.2,-999,0.00,,,0.41,WeatherCatV1.11B39,2013-01-19 19:30:00,
2013-01-19 14:37:00,-999.0,-99.9,30.10,North,-999,-999.0,2.2,-999,0.00,,,0.41,WeatherCatV1.11B39,2013-01-19 19:37:00,
2013-01-19 14:44:00,-999.0,-99.9,30.11,North,-999,-999.0,2.2,-999,0.00,,,0.41,WeatherCatV1.11B39,2013-01-19 19:44:00,
2013-01-19 14:51:00,-999.0,-99.9,30.10,North,-999,-999.0,2.2,-999,0.00,,,0.41,WeatherCatV1.11B39,2013-01-19 19:51:00,
2013-01-19 14:58:00,53.8,26.1,30.10,SW,225,1.6,1.6,34,0.00,,,0.41,WeatherCatV1.11B39,2013-01-19 19:58:00,
2013-01-19 15:03:00,53.8,26.1,30.09,SW,225,1.6,1.6,34,0.00,,,0.41,WeatherCatV1.11B39,2013-01-19 20:03:00,
2013-01-19 15:09:00,53.8,26.1,30.09,SW,225,1.6,1.6,34,0.00,,,0.41,WeatherCatV1.11B39,2013-01-19 20:09:00,
2013-01-19 15:14:00,53.4,27.1,30.09,South,180,3.1,3.1,36,0.00,,,0.41,WeatherCatV1.11B39,2013-01-19 20:14:00,
2013-01-19 15:20:00,53.1,26.8,30.09,South,180,3.1,3.1,36,0.00,,,0.41,WeatherCatV1.11B39,2013-01-19 20:20:00,
2013-01-19 15:25:00,53.1,26.8,30.08,South,180,3.1,3.1,36,0.00,,,0.41,WeatherCatV1.11B39,2013-01-19 20:25:00,
2013-01-19 15:33:00,-999.0,-99.9,30.08,North,-999,-999.0,3.1,-999,0.00,,,0.41,WeatherCatV1.11B39,2013-01-19 20:33:00,
2013-01-19 15:40:00,-999.0,-99.9,30.07,North,-999,-999.0,3.1,-999,0.00,,,0.41,WeatherCatV1.11B39,2013-01-19 20:40:00,
2013-01-19 15:46:00,52.3,27.5,30.08,South,180,3.1,3.1,38,0.00,,,0.41,WeatherCatV1.11B39,2013-01-19 20:46:00,
2013-01-19 15:51:00,52.3,26.8,30.07,South,180,2.2,2.2,37,0.00,,,0.41,WeatherCatV1.11B39,2013-01-19 20:51:00,
2013-01-19 15:57:00,52.3,26.8,30.07,South,180,2.2,2.2,37,0.00,,,0.41,WeatherCatV1.11B39,2013-01-19 20:57:00,
2013-01-19 16:02:00,-999.0,-99.9,30.07,North,-999,-999.0,2.2,-999,0.00,,,0.41,WeatherCatV1.11B39,2013-01-19 21:02:00,
2013-01-19 16:07:00,52.2,26.7,30.07,South,180,4.5,4.5,37,0.00,,,0.41,WeatherCatV1.11B39,2013-01-19 21:07:00,
2013-01-19 16:12:00,52.0,26.5,30.06,North,0,1.6,1.6,37,0.00,,,0.41,WeatherCatV1.11B39,2013-01-19 21:12:00,
2013-01-19 16:17:00,51.8,27.0,30.07,South,180,1.6,1.6,38,0.00,,,0.41,WeatherCatV1.11B39,2013-01-19 21:17:00,
2013-01-19 16:23:00,51.8,27.0,30.06,South,180,1.6,1.6,38,0.00,,,0.41,WeatherCatV1.11B39,2013-01-19 21:23:00,
2013-01-19 16:28:00,51.8,27.0,30.07,South,180,1.6,1.6,38,0.00,,,0.41,WeatherCatV1.11B39,2013-01-19 21:28:00,
2013-01-19 16:34:00,-999.0,-99.9,30.06,North,-999,-999.0,1.6,-999,0.00,,,0.41,WeatherCatV1.11B39,2013-01-19 21:34:00,
2013-01-19 16:43:00,-999.0,-99.9,30.06,North,-999,-999.0,1.6,-999,0.00,,,0.41,WeatherCatV1.11B39,2013-01-19 21:43:00,
2013-01-19 16:50:00,-999.0,-99.9,30.06,North,-999,-999.0,1.6,-999,0.00,,,0.41,WeatherCatV1.11B39,2013-01-19 21:50:00,
2013-01-19 16:57:00,-999.0,-99.9,30.05,North,-999,-999.0,1.6,-999,0.00,,,0.41,WeatherCatV1.11B39,2013-01-19 21:57:00,
2013-01-19 17:04:00,-999.0,-99.9,30.05,North,-999,-999.0,1.6,-999,0.00,,,0.41,WeatherCatV1.11B39,2013-01-19 22:04:00,
2013-01-19 17:11:00,-999.0,-99.9,30.05,North,-999,-999.0,1.6,-999,0.00,,,0.41,WeatherCatV1.11B39,2013-01-19 22:11:00,
2013-01-19 17:18:00,-999.0,-99.9,30.05,North,-999,-999.0,1.6,-999,0.00,,,0.41,WeatherCatV1.11B39,2013-01-19 22:18:00,
2013-01-19 17:25:00,-999.0,-99.9,30.05,North,-999,-999.0,1.6,-999,0.00,,,0.41,WeatherCatV1.11B39,2013-01-19 22:25:00,
2013-01-19 17:32:00,-999.0,-99.9,30.05,North,-999,-999.0,1.6,-999,0.00,,,0.41,WeatherCatV1.11B39,2013-01-19 22:32:00,
2013-01-19 17:40:00,-999.0,-99.9,30.05,North,-999,-999.0,1.6,-999,0.00,,,0.41,WeatherCatV1.11B39,2013-01-19 22:40:00,
2013-01-19 17:47:00,-999.0,-99.9,30.05,North,-999,-999.0,1.6,-999,0.00,,,0.41,WeatherCatV1.11B39,2013-01-19 22:47:00,
2013-01-19 17:54:00,-999.0,-99.9,30.05,North,-999,-999.0,1.6,-999,0.00,,,0.41,WeatherCatV1.11B39,2013-01-19 22:54:00,
2013-01-19 18:01:00,-999.0,-99.9,30.05,North,-999,-999.0,1.6,-999,0.00,,,0.41,WeatherCatV1.11B39,2013-01-19 23:01:00,
2013-01-19 18:08:00,-999.0,-99.9,30.05,North,-999,-999.0,1.6,-999,0.00,,,0.41,WeatherCatV1.11B39,2013-01-19 23:08:00,
2013-01-19 18:15:00,-999.0,-99.9,30.05,North,-999,-999.0,1.6,-999,0.00,,,0.41,WeatherCatV1.11B39,2013-01-19 23:15:00,
2013-01-19 18:22:00,-999.0,-99.9,30.05,North,-999,-999.0,1.6,-999,0.00,,,0.41,WeatherCatV1.11B39,2013-01-19 23:22:00,
2013-01-19 18:29:00,-999.0,-99.9,30.05,North,-999,-999.0,1.6,-999,0.00,,,0.41,WeatherCatV1.11B39,2013-01-19 23:29:00,
2013-01-19 18:36:00,-999.0,-99.9,30.05,North,-999,-999.0,1.6,-999,0.00,,,0.41,WeatherCatV1.11B39,2013-01-19 23:36:00,
2013-01-19 18:45:00,-999.0,-99.9,30.05,North,-999,-999.0,1.6,-999,0.00,,,0.41,WeatherCatV1.11B39,2013-01-19 23:45:00,
2013-01-19 18:52:00,-999.0,-99.9,30.05,North,-999,-999.0,1.6,-999,0.00,,,0.41,WeatherCatV1.11B39,2013-01-19 23:52:00,
2013-01-19 19:02:00,-999.0,-99.9,30.05,North,-999,-999.0,1.6,-999,0.00,,,0.41,WeatherCatV1.11B39,2013-01-20 00:02:00,
2013-01-19 19:09:00,-999.0,-99.9,30.05,North,-999,-999.0,1.6,-999,0.00,,,0.41,WeatherCatV1.11B39,2013-01-20 00:09:00,
2013-01-19 19:18:00,-999.0,-99.9,30.05,North,-999,-999.0,1.6,-999,0.00,,,0.41,WeatherCatV1.11B39,2013-01-20 00:18:00,
2013-01-19 19:25:00,-999.0,-99.9,30.05,North,-999,-999.0,1.6,-999,0.00,,,0.41,WeatherCatV1.11B39,2013-01-20 00:25:00,
2013-01-19 19:32:00,-999.0,-99.9,30.05,North,-999,-999.0,1.6,-999,0.00,,,0.41,WeatherCatV1.11B39,2013-01-20 00:32:00,
2013-01-19 19:39:00,-999.0,-99.9,30.05,North,-999,-999.0,1.6,-999,0.00,,,0.41,WeatherCatV1.11B39,2013-01-20 00:39:00,
2013-01-19 19:46:00,-999.0,-99.9,30.05,North,-999,-999.0,1.6,-999,0.00,,,0.41,WeatherCatV1.11B39,2013-01-20 00:46:00,
2013-01-19 19:58:00,-999.0,-99.9,30.04,North,-999,-999.0,1.6,-999,0.00,,,0.41,WeatherCatV1.11B39,2013-01-20 00:58:00,
2013-01-19 20:05:00,-999.0,-99.9,30.04,North,-999,-999.0,1.6,-999,0.00,,,0.41,WeatherCatV1.11B39,2013-01-20 01:05:00,
2013-01-19 20:12:00,-999.0,-99.9,30.03,North,-999,-999.0,1.6,-999,0.00,,,0.41,WeatherCatV1.11B39,2013-01-20 01:12:00,
2013-01-19 20:19:00,-999.0,-99.9,30.03,North,-999,-999.0,1.6,-999,0.00,,,0.41,WeatherCatV1.11B39,2013-01-20 01:19:00,
2013-01-19 20:26:00,-999.0,-99.9,30.03,North,-999,-999.0,1.6,-999,0.00,,,0.41,WeatherCatV1.11B39,2013-01-20 01:26:00,
2013-01-19 20:33:00,-999.0,-99.9,30.02,North,-999,-999.0,1.6,-999,0.00,,,0.41,WeatherCatV1.11B39,2013-01-20 01:33:00,
2013-01-19 20:40:00,-999.0,-99.9,30.03,North,-999,-999.0,1.6,-999,0.00,,,0.41,WeatherCatV1.11B39,2013-01-20 01:40:00,
2013-01-19 20:47:00,-999.0,-99.9,30.02,North,-999,-999.0,1.6,-999,0.00,,,0.41,WeatherCatV1.11B39,2013-01-20 01:47:00,
2013-01-19 20:55:00,-999.0,-99.9,30.02,North,-999,-999.0,1.6,-999,0.00,,,0.41,WeatherCatV1.11B39,2013-01-20 01:55:00,
2013-01-19 21:02:00,-999.0,-99.9,30.02,North,-999,-999.0,1.6,-999,0.00,,,0.41,WeatherCatV1.11B39,2013-01-20 02:02:00,
2013-01-19 21:09:00,-999.0,-99.9,30.01,North,-999,-999.0,1.6,-999,0.00,,,0.41,WeatherCatV1.11B39,2013-01-20 02:09:00,
2013-01-19 21:16:00,-999.0,-99.9,30.01,North,-999,-999.0,1.6,-999,0.00,,,0.41,WeatherCatV1.11B39,2013-01-20 02:16:00,
2013-01-19 21:23:00,-999.0,-99.9,30.01,North,-999,-999.0,1.6,-999,0.00,,,0.41,WeatherCatV1.11B39,2013-01-20 02:23:00,
2013-01-19 21:30:00,-999.0,-99.9,30.00,North,-999,-999.0,1.6,-999,0.00,,,0.41,WeatherCatV1.11B39,2013-01-20 02:30:00,
2013-01-19 21:37:00,-999.0,-99.9,30.00,North,-999,-999.0,1.6,-999,0.00,,,0.41,WeatherCatV1.11B39,2013-01-20 02:37:00,
2013-01-19 21:44:00,-999.0,-99.9,30.00,North,-999,-999.0,1.6,-999,0.00,,,0.41,WeatherCatV1.11B39,2013-01-20 02:44:00,
2013-01-19 21:53:00,-999.0,-99.9,30.00,North,-999,-999.0,1.6,-999,0.00,,,0.41,WeatherCatV1.11B39,2013-01-20 02:53:00,
2013-01-19 22:00:00,-999.0,-99.9,30.00,North,-999,-999.0,1.6,-999,0.00,,,0.41,WeatherCatV1.11B39,2013-01-20 03:00:00,
2013-01-19 22:07:00,-999.0,-99.9,30.01,North,-999,-999.0,1.6,-999,0.00,,,0.41,WeatherCatV1.11B39,2013-01-20 03:07:00,
2013-01-19 22:14:00,-999.0,-99.9,30.00,North,-999,-999.0,1.6,-999,0.00,,,0.41,WeatherCatV1.11B39,2013-01-20 03:14:00,
2013-01-19 22:21:00,-999.0,-99.9,30.00,North,-999,-999.0,1.6,-999,0.00,,,0.41,WeatherCatV1.11B39,2013-01-20 03:21:00,
2013-01-19 22:29:00,-999.0,-99.9,29.99,North,-999,-999.0,1.6,-999,0.00,,,0.41,WeatherCatV1.11B39,2013-01-20 03:29:00,
2013-01-19 22:38:00,-999.0,-99.9,29.98,North,-999,-999.0,1.6,-999,0.00,,,0.41,WeatherCatV1.11B39,2013-01-20 03:38:00,
2013-01-19 22:47:00,-999.0,-99.9,29.98,North,-999,-999.0,1.6,-999,0.00,,,0.41,WeatherCatV1.11B39,2013-01-20 03:47:00,
2013-01-19 22:54:00,-999.0,-99.9,29.97,North,-999,-999.0,1.6,-999,0.00,,,0.41,WeatherCatV1.11B39,2013-01-20 03:54:00,
2013-01-19 23:01:00,-999.0,-99.9,29.97,North,-999,-999.0,1.6,-999,0.00,,,0.41,WeatherCatV1.11B39,2013-01-20 04:01:00,
2013-01-19 23:08:00,-999.0,-99.9,29.96,North,-999,-999.0,1.6,-999,0.00,,,0.41,WeatherCatV1.11B39,2013-01-20 04:08:00,
2013-01-19 23:15:00,-999.0,-99.9,29.96,North,-999,-999.0,1.6,-999,0.00,,,0.41,WeatherCatV1.11B39,2013-01-20 04:15:00,
2013-01-19 23:22:00,-999.0,-99.9,29.95,North,-999,-999.0,1.6,-999,0.00,,,0.41,WeatherCatV1.11B39,2013-01-20 04:22:00,
2013-01-19 23:28:00,43.7,27.2,29.95,SSW,202,3.1,3.1,52,0.00,,,0.41,WeatherCatV1.11B39,2013-01-20 04:28:00,
2013-01-19 23:33:00,43.7,27.2,29.94,SSW,202,3.1,3.1,52,0.00,,,0.41,WeatherCatV1.11B39,2013-01-20 04:33:00,
2013-01-19 23:39:00,-999.0,-99.9,29.94,North,-999,-999.0,3.1,-999,0.00,,,0.41,WeatherCatV1.11B39,2013-01-20 04:39:00,
2013-01-19 23:47:00,-999.0,-99.9,29.94,North,-999,-999.0,3.1,-999,0.00,,,0.41,WeatherCatV1.11B39,2013-01-20 04:47:00,
2013-01-19 23:53:00,-999.0,-99.9,29.93,North,-999,-999.0,3.1,-999,0.00,,,0.41,WeatherCatV1.11B39,2013-01-20 04:53:00,